owner,sensor,date,latitude,longitude,vertical_datum,sea_water_practical_salinity,qcFlag 
LUMCON,ioos:station:LUMCON:101:1,2017-08-01T00:00:00Z,29.2533,-90.6633,1.32,10.75,1111122 
LUMCON,ioos:station:LUMCON:101:1,2017-08-01T00:15:00Z,29.2533,-90.6633,1.33,10.89,1111122 
LUMCON,ioos:station:LUMCON:101:1,2017-08-01T00:30:00Z,29.2533,-90.6633,1.33,11.06,1111122 
LUMCON,ioos:station:LUMCON:101:1,2017-08-01T00:45:00Z,29.2533,-90.6633,1.34,11.06,1111122 
LUMCON,ioos:station:LUMCON:101:1,2017-08-01T01:00:00Z,29.2533,-90.6633,1.35,11.37,1111122 
LUMCON,ioos:station:LUMCON:101:1,2017-08-01T01:15:00Z,29.2533,-90.6633,1.35,11.66,1111122 
LUMCON,ioos:station:LUMCON:101:1,2017-08-01T01:30:00Z,29.2533,-90.6633,1.36,11.97,1111122 
LUMCON,ioos:station:LUMCON:101:1,2017-08-01T01:45:00Z,29.2533,-90.6633,1.37,12.07,1111122 
LUMCON,ioos:station:LUMCON:101:1,2017-08-01T02:00:00Z,29.2533,-90.6633,1.39,11.78,1111122 
LUMCON,ioos:station:LUMCON:101:1,2017-08-01T02:15:00Z,29.2533,-90.6633,1.4,11.59,1111122 
LUMCON,ioos:station:LUMCON:101:1,2017-08-01T02:30:00Z,29.2533,-90.6633,1.41,11.68,1111122 
LUMCON,ioos:station:LUMCON:101:1,2017-08-01T02:45:00Z,29.2533,-90.6633,1.41,11.71,1111122 
LUMCON,ioos:station:LUMCON:101:1,2017-08-01T03:00:00Z,29.2533,-90.6633,1.42,11.76,1111122 
LUMCON,ioos:station:LUMCON:101:1,2017-08-01T03:15:00Z,29.2533,-90.6633,1.42,11.78,1111122 
LUMCON,ioos:station:LUMCON:101:1,2017-08-01T03:30:00Z,29.2533,-90.6633,1.43,11.83,1111122 
LUMCON,ioos:station:LUMCON:101:1,2017-08-01T03:45:00Z,29.2533,-90.6633,1.44,11.87,1111122 
LUMCON,ioos:station:LUMCON:101:1,2017-08-01T04:00:00Z,29.2533,-90.6633,1.45,11.9,1111122 
LUMCON,ioos:station:LUMCON:101:1,2017-08-01T04:15:00Z,29.2533,-90.6633,1.45,11.92,1111122 
LUMCON,ioos:station:LUMCON:101:1,2017-08-01T04:30:00Z,29.2533,-90.6633,1.46,11.95,1111122 
LUMCON,ioos:station:LUMCON:101:1,2017-08-01T04:45:00Z,29.2533,-90.6633,1.47,12.03,1111122 
LUMCON,ioos:station:LUMCON:101:1,2017-08-01T05:00:00Z,29.2533,-90.6633,1.48,12.12,1111122 
LUMCON,ioos:station:LUMCON:101:1,2017-08-01T05:15:00Z,29.2533,-90.6633,1.48,12.36,1111122 
LUMCON,ioos:station:LUMCON:101:1,2017-08-01T05:30:00Z,29.2533,-90.6633,1.49,12.73,1111122 
LUMCON,ioos:station:LUMCON:101:1,2017-08-01T05:45:00Z,29.2533,-90.6633,1.5,12.89,1111122 
LUMCON,ioos:station:LUMCON:101:1,2017-08-01T06:00:00Z,29.2533,-90.6633,1.51,13.13,1111122 
LUMCON,ioos:station:LUMCON:101:1,2017-08-01T06:15:00Z,29.2533,-90.6633,1.52,13.47,1111122 
LUMCON,ioos:station:LUMCON:101:1,2017-08-01T06:30:00Z,29.2533,-90.6633,1.53,13.89,1111122 
LUMCON,ioos:station:LUMCON:101:1,2017-08-01T06:45:00Z,29.2533,-90.6633,1.54,14.2,1111122 
LUMCON,ioos:station:LUMCON:101:1,2017-08-01T07:00:00Z,29.2533,-90.6633,1.55,14.55,1111122 
LUMCON,ioos:station:LUMCON:101:1,2017-08-01T07:15:00Z,29.2533,-90.6633,1.55,14.83,1111122 
LUMCON,ioos:station:LUMCON:101:1,2017-08-01T07:30:00Z,29.2533,-90.6633,1.56,15.15,1111122 
LUMCON,ioos:station:LUMCON:101:1,2017-08-01T07:45:00Z,29.2533,-90.6633,1.57,15.35,1111122 
LUMCON,ioos:station:LUMCON:101:1,2017-08-01T08:00:00Z,29.2533,-90.6633,1.58,15.57,1111122 
LUMCON,ioos:station:LUMCON:101:1,2017-08-01T08:15:00Z,29.2533,-90.6633,1.59,15.88,1111122 
LUMCON,ioos:station:LUMCON:101:1,2017-08-01T08:30:00Z,29.2533,-90.6633,1.6,16.16,1111122 
LUMCON,ioos:station:LUMCON:101:1,2017-08-01T08:45:00Z,29.2533,-90.6633,1.6,16.37,1111122 
LUMCON,ioos:station:LUMCON:101:1,2017-08-01T09:00:00Z,29.2533,-90.6633,1.61,16.48,1111122 
LUMCON,ioos:station:LUMCON:101:1,2017-08-01T09:15:00Z,29.2533,-90.6633,1.62,16.59,1111122 
LUMCON,ioos:station:LUMCON:101:1,2017-08-01T09:30:00Z,29.2533,-90.6633,1.62,16.65,1111122 
LUMCON,ioos:station:LUMCON:101:1,2017-08-01T09:45:00Z,29.2533,-90.6633,1.63,16.66,1111122 
LUMCON,ioos:station:LUMCON:101:1,2017-08-01T10:00:00Z,29.2533,-90.6633,1.64,16.66,1111122 
LUMCON,ioos:station:LUMCON:101:1,2017-08-01T10:15:00Z,29.2533,-90.6633,1.65,16.65,1111122 
LUMCON,ioos:station:LUMCON:101:1,2017-08-01T10:30:00Z,29.2533,-90.6633,1.65,16.64,1111122 
LUMCON,ioos:station:LUMCON:101:1,2017-08-01T10:45:00Z,29.2533,-90.6633,1.66,16.58,1111122 
LUMCON,ioos:station:LUMCON:101:1,2017-08-01T11:00:00Z,29.2533,-90.6633,1.67,16.55,1111122 
LUMCON,ioos:station:LUMCON:101:1,2017-08-01T11:15:00Z,29.2533,-90.6633,1.67,16.53,1111122 
LUMCON,ioos:station:LUMCON:101:1,2017-08-01T11:30:00Z,29.2533,-90.6633,1.67,16.49,1111122 
LUMCON,ioos:station:LUMCON:101:1,2017-08-01T11:45:00Z,29.2533,-90.6633,1.67,16.47,1111122 
LUMCON,ioos:station:LUMCON:101:1,2017-08-01T12:00:00Z,29.2533,-90.6633,1.67,16.45,1111122 
LUMCON,ioos:station:LUMCON:101:1,2017-08-01T12:15:00Z,29.2533,-90.6633,1.67,16.43,1111122 
LUMCON,ioos:station:LUMCON:101:1,2017-08-01T12:30:00Z,29.2533,-90.6633,1.68,16.41,1111122 
LUMCON,ioos:station:LUMCON:101:1,2017-08-01T12:45:00Z,29.2533,-90.6633,1.68,16.4,1111122 
LUMCON,ioos:station:LUMCON:101:1,2017-08-01T13:00:00Z,29.2533,-90.6633,1.68,16.39,1111122 
LUMCON,ioos:station:LUMCON:101:1,2017-08-01T13:15:00Z,29.2533,-90.6633,1.68,16.38,1111122 
LUMCON,ioos:station:LUMCON:101:1,2017-08-01T13:30:00Z,29.2533,-90.6633,1.68,16.37,1111122 
LUMCON,ioos:station:LUMCON:101:1,2017-08-01T13:45:00Z,29.2533,-90.6633,1.68,16.36,1111122 
LUMCON,ioos:station:LUMCON:101:1,2017-08-01T14:00:00Z,29.2533,-90.6633,1.68,16.35,1111122 
LUMCON,ioos:station:LUMCON:101:1,2017-08-01T14:15:00Z,29.2533,-90.6633,1.68,16.34,1111122 
LUMCON,ioos:station:LUMCON:101:1,2017-08-01T14:30:00Z,29.2533,-90.6633,1.68,16.33,1111122 
LUMCON,ioos:station:LUMCON:101:1,2017-08-01T14:45:00Z,29.2533,-90.6633,1.68,16.32,1111122 
LUMCON,ioos:station:LUMCON:101:1,2017-08-01T15:00:00Z,29.2533,-90.6633,1.67,16.32,1111122 
LUMCON,ioos:station:LUMCON:101:1,2017-08-01T15:15:00Z,29.2533,-90.6633,1.66,16.3,1111122 
LUMCON,ioos:station:LUMCON:101:1,2017-08-01T15:30:00Z,29.2533,-90.6633,1.65,16.24,1111122 
LUMCON,ioos:station:LUMCON:101:1,2017-08-01T15:45:00Z,29.2533,-90.6633,1.64,16.21,1111122 
LUMCON,ioos:station:LUMCON:101:1,2017-08-01T16:00:00Z,29.2533,-90.6633,1.63,16.19,1111122 
LUMCON,ioos:station:LUMCON:101:1,2017-08-01T16:15:00Z,29.2533,-90.6633,1.61,16.24,1111122 
LUMCON,ioos:station:LUMCON:101:1,2017-08-01T16:30:00Z,29.2533,-90.6633,1.6,16.24,1111122 
LUMCON,ioos:station:LUMCON:101:1,2017-08-01T16:45:00Z,29.2533,-90.6633,1.59,16.22,1111122 
LUMCON,ioos:station:LUMCON:101:1,2017-08-01T17:00:00Z,29.2533,-90.6633,1.57,16.15,1111122 
LUMCON,ioos:station:LUMCON:101:1,2017-08-01T17:15:00Z,29.2533,-90.6633,1.56,16.14,1111122 
LUMCON,ioos:station:LUMCON:101:1,2017-08-01T17:30:00Z,29.2533,-90.6633,1.55,16.12,1111122 
LUMCON,ioos:station:LUMCON:101:1,2017-08-01T17:45:00Z,29.2533,-90.6633,1.54,16.06,1111122 
LUMCON,ioos:station:LUMCON:101:1,2017-08-01T18:00:00Z,29.2533,-90.6633,1.53,16.0,1111122 
LUMCON,ioos:station:LUMCON:101:1,2017-08-01T18:15:00Z,29.2533,-90.6633,1.52,15.92,1111122 
LUMCON,ioos:station:LUMCON:101:1,2017-08-01T18:30:00Z,29.2533,-90.6633,1.5,15.81,1111122 
LUMCON,ioos:station:LUMCON:101:1,2017-08-01T19:15:00Z,29.2533,-90.6633,1.47,15.24,1111122 
LUMCON,ioos:station:LUMCON:101:1,2017-08-01T19:30:00Z,29.2533,-90.6633,1.46,14.96,1111122 
LUMCON,ioos:station:LUMCON:101:1,2017-08-01T19:45:00Z,29.2533,-90.6633,1.44,14.68,1111122 
LUMCON,ioos:station:LUMCON:101:1,2017-08-01T20:00:00Z,29.2533,-90.6633,1.43,14.4,1111122 
LUMCON,ioos:station:LUMCON:101:1,2017-08-01T20:15:00Z,29.2533,-90.6633,1.42,14.05,1111122 
LUMCON,ioos:station:LUMCON:101:1,2017-08-01T20:30:00Z,29.2533,-90.6633,1.41,13.64,1111122 
LUMCON,ioos:station:LUMCON:101:1,2017-08-01T20:45:00Z,29.2533,-90.6633,1.4,13.31,1111122 
LUMCON,ioos:station:LUMCON:101:1,2017-08-01T21:00:00Z,29.2533,-90.6633,1.39,12.98,1111122 
LUMCON,ioos:station:LUMCON:101:1,2017-08-01T21:15:00Z,29.2533,-90.6633,1.38,12.65,1111122 
LUMCON,ioos:station:LUMCON:101:1,2017-08-01T21:30:00Z,29.2533,-90.6633,1.37,12.43,1111122 
LUMCON,ioos:station:LUMCON:101:1,2017-08-01T21:45:00Z,29.2533,-90.6633,1.36,12.17,1111122 
LUMCON,ioos:station:LUMCON:101:1,2017-08-01T22:00:00Z,29.2533,-90.6633,1.35,11.85,1111122 
LUMCON,ioos:station:LUMCON:101:1,2017-08-01T22:15:00Z,29.2533,-90.6633,1.34,11.56,1111122 
LUMCON,ioos:station:LUMCON:101:1,2017-08-01T22:30:00Z,29.2533,-90.6633,1.34,11.35,1111122 
LUMCON,ioos:station:LUMCON:101:1,2017-08-01T22:45:00Z,29.2533,-90.6633,1.34,11.04,1111122 
LUMCON,ioos:station:LUMCON:101:1,2017-08-01T23:00:00Z,29.2533,-90.6633,1.34,10.91,1111122 
LUMCON,ioos:station:LUMCON:101:1,2017-08-01T23:15:00Z,29.2533,-90.6633,1.34,10.75,1111122 
LUMCON,ioos:station:LUMCON:101:1,2017-08-01T23:30:00Z,29.2533,-90.6633,1.33,10.61,1111122 
LUMCON,ioos:station:LUMCON:101:1,2017-08-01T23:45:00Z,29.2533,-90.6633,1.33,10.37,1111122 
LUMCON,ioos:station:LUMCON:101:1,2017-08-02T00:00:00Z,29.2533,-90.6633,1.32,10.28,1111122 
LUMCON,ioos:station:LUMCON:101:1,2017-08-02T00:15:00Z,29.2533,-90.6633,1.32,10.15,1111122 
LUMCON,ioos:station:LUMCON:101:1,2017-08-02T00:30:00Z,29.2533,-90.6633,1.32,10.0,1111122 
LUMCON,ioos:station:LUMCON:101:1,2017-08-02T00:45:00Z,29.2533,-90.6633,1.32,9.92,1111122 
LUMCON,ioos:station:LUMCON:101:1,2017-08-02T01:00:00Z,29.2533,-90.6633,1.32,9.81,1111122 
LUMCON,ioos:station:LUMCON:101:1,2017-08-02T01:15:00Z,29.2533,-90.6633,1.32,9.81,1111122 
LUMCON,ioos:station:LUMCON:101:1,2017-08-02T01:30:00Z,29.2533,-90.6633,1.33,9.81,1111122 
LUMCON,ioos:station:LUMCON:101:1,2017-08-02T01:45:00Z,29.2533,-90.6633,1.34,10.93,1111122 
LUMCON,ioos:station:LUMCON:101:1,2017-08-02T02:00:00Z,29.2533,-90.6633,1.35,12.67,1111122 
LUMCON,ioos:station:LUMCON:101:1,2017-08-02T02:15:00Z,29.2533,-90.6633,1.35,13.18,1111122 
LUMCON,ioos:station:LUMCON:101:1,2017-08-02T02:30:00Z,29.2533,-90.6633,1.36,13.3,1111122 
LUMCON,ioos:station:LUMCON:101:1,2017-08-02T02:45:00Z,29.2533,-90.6633,1.37,13.02,1111122 
LUMCON,ioos:station:LUMCON:101:1,2017-08-02T03:00:00Z,29.2533,-90.6633,1.38,12.69,1111122 
LUMCON,ioos:station:LUMCON:101:1,2017-08-02T03:15:00Z,29.2533,-90.6633,1.39,12.61,1111122 
LUMCON,ioos:station:LUMCON:101:1,2017-08-02T03:30:00Z,29.2533,-90.6633,1.4,12.66,1111122 
LUMCON,ioos:station:LUMCON:101:1,2017-08-02T03:45:00Z,29.2533,-90.6633,1.41,12.64,1111122 
LUMCON,ioos:station:LUMCON:101:1,2017-08-02T04:00:00Z,29.2533,-90.6633,1.42,12.79,1111122 
LUMCON,ioos:station:LUMCON:101:1,2017-08-02T04:15:00Z,29.2533,-90.6633,1.43,13.06,1111122 
LUMCON,ioos:station:LUMCON:101:1,2017-08-02T04:30:00Z,29.2533,-90.6633,1.44,13.26,1111122 
LUMCON,ioos:station:LUMCON:101:1,2017-08-02T04:45:00Z,29.2533,-90.6633,1.45,13.44,1111122 
LUMCON,ioos:station:LUMCON:101:1,2017-08-02T05:00:00Z,29.2533,-90.6633,1.46,13.53,1111122 
LUMCON,ioos:station:LUMCON:101:1,2017-08-02T05:15:00Z,29.2533,-90.6633,1.47,13.61,1111122 
LUMCON,ioos:station:LUMCON:101:1,2017-08-02T05:30:00Z,29.2533,-90.6633,1.48,13.72,1111122 
LUMCON,ioos:station:LUMCON:101:1,2017-08-02T05:45:00Z,29.2533,-90.6633,1.48,13.8,1111122 
LUMCON,ioos:station:LUMCON:101:1,2017-08-02T06:00:00Z,29.2533,-90.6633,1.49,13.86,1111122 
LUMCON,ioos:station:LUMCON:101:1,2017-08-02T06:15:00Z,29.2533,-90.6633,1.5,13.93,1111122 
LUMCON,ioos:station:LUMCON:101:1,2017-08-02T06:30:00Z,29.2533,-90.6633,1.5,14.0,1111122 
LUMCON,ioos:station:LUMCON:101:1,2017-08-02T06:45:00Z,29.2533,-90.6633,1.51,14.06,1111122 
LUMCON,ioos:station:LUMCON:101:1,2017-08-02T07:00:00Z,29.2533,-90.6633,1.52,14.11,1111122 
LUMCON,ioos:station:LUMCON:101:1,2017-08-02T07:15:00Z,29.2533,-90.6633,1.53,14.16,1111122 
LUMCON,ioos:station:LUMCON:101:1,2017-08-02T07:30:00Z,29.2533,-90.6633,1.53,14.18,1111122 
LUMCON,ioos:station:LUMCON:101:1,2017-08-02T07:45:00Z,29.2533,-90.6633,1.54,14.3,1111122 
LUMCON,ioos:station:LUMCON:101:1,2017-08-02T08:00:00Z,29.2533,-90.6633,1.55,14.48,1111122 
LUMCON,ioos:station:LUMCON:101:1,2017-08-02T08:15:00Z,29.2533,-90.6633,1.55,14.55,1111122 
LUMCON,ioos:station:LUMCON:101:1,2017-08-02T08:30:00Z,29.2533,-90.6633,1.56,14.63,1111122 
LUMCON,ioos:station:LUMCON:101:1,2017-08-02T08:45:00Z,29.2533,-90.6633,1.57,14.72,1111122 
LUMCON,ioos:station:LUMCON:101:1,2017-08-02T09:00:00Z,29.2533,-90.6633,1.58,14.79,1111122 
LUMCON,ioos:station:LUMCON:101:1,2017-08-02T09:15:00Z,29.2533,-90.6633,1.58,14.87,1111122 
LUMCON,ioos:station:LUMCON:101:1,2017-08-02T09:30:00Z,29.2533,-90.6633,1.59,14.98,1111122 
LUMCON,ioos:station:LUMCON:101:1,2017-08-02T09:45:00Z,29.2533,-90.6633,1.6,15.08,1111122 
LUMCON,ioos:station:LUMCON:101:1,2017-08-02T10:00:00Z,29.2533,-90.6633,1.6,15.16,1111122 
LUMCON,ioos:station:LUMCON:101:1,2017-08-02T10:15:00Z,29.2533,-90.6633,1.62,15.27,1111122 
LUMCON,ioos:station:LUMCON:101:1,2017-08-02T10:30:00Z,29.2533,-90.6633,1.62,15.33,1111122 
LUMCON,ioos:station:LUMCON:101:1,2017-08-02T10:45:00Z,29.2533,-90.6633,1.63,15.42,1111122 
LUMCON,ioos:station:LUMCON:101:1,2017-08-02T11:00:00Z,29.2533,-90.6633,1.63,15.54,1111122 
LUMCON,ioos:station:LUMCON:101:1,2017-08-02T11:15:00Z,29.2533,-90.6633,1.64,15.63,1111122 
LUMCON,ioos:station:LUMCON:101:1,2017-08-02T11:30:00Z,29.2533,-90.6633,1.65,15.76,1111122 
LUMCON,ioos:station:LUMCON:101:1,2017-08-02T11:45:00Z,29.2533,-90.6633,1.65,15.82,1111122 
LUMCON,ioos:station:LUMCON:101:1,2017-08-02T12:00:00Z,29.2533,-90.6633,1.65,15.77,1111122 
LUMCON,ioos:station:LUMCON:101:1,2017-08-02T12:15:00Z,29.2533,-90.6633,1.65,15.77,1111122 
LUMCON,ioos:station:LUMCON:101:1,2017-08-02T12:30:00Z,29.2533,-90.6633,1.65,15.86,1111122 
LUMCON,ioos:station:LUMCON:101:1,2017-08-02T12:45:00Z,29.2533,-90.6633,1.65,16.07,1111122 
LUMCON,ioos:station:LUMCON:101:1,2017-08-02T13:00:00Z,29.2533,-90.6633,1.65,16.11,1111122 
LUMCON,ioos:station:LUMCON:101:1,2017-08-02T13:15:00Z,29.2533,-90.6633,1.65,16.2,1111122 
LUMCON,ioos:station:LUMCON:101:1,2017-08-02T13:30:00Z,29.2533,-90.6633,1.66,16.28,1111122 
LUMCON,ioos:station:LUMCON:101:1,2017-08-02T13:45:00Z,29.2533,-90.6633,1.65,16.35,1111122 
LUMCON,ioos:station:LUMCON:101:1,2017-08-02T14:00:00Z,29.2533,-90.6633,1.66,16.41,1111122 
LUMCON,ioos:station:LUMCON:101:1,2017-08-02T14:15:00Z,29.2533,-90.6633,1.66,16.5,1111122 
LUMCON,ioos:station:LUMCON:101:1,2017-08-02T14:30:00Z,29.2533,-90.6633,1.66,16.5,1111122 
LUMCON,ioos:station:LUMCON:101:1,2017-08-02T14:45:00Z,29.2533,-90.6633,1.66,16.52,1111122 
LUMCON,ioos:station:LUMCON:101:1,2017-08-02T15:00:00Z,29.2533,-90.6633,1.66,16.53,1111122 
LUMCON,ioos:station:LUMCON:101:1,2017-08-02T15:15:00Z,29.2533,-90.6633,1.66,16.54,1111122 
LUMCON,ioos:station:LUMCON:101:1,2017-08-02T15:30:00Z,29.2533,-90.6633,1.66,16.6,1111122 
LUMCON,ioos:station:LUMCON:101:1,2017-08-02T15:45:00Z,29.2533,-90.6633,1.65,16.6,1111122 
LUMCON,ioos:station:LUMCON:101:1,2017-08-02T16:00:00Z,29.2533,-90.6633,1.64,16.56,1111122 
LUMCON,ioos:station:LUMCON:101:1,2017-08-02T16:15:00Z,29.2533,-90.6633,1.63,16.37,1111122 
LUMCON,ioos:station:LUMCON:101:1,2017-08-02T16:30:00Z,29.2533,-90.6633,1.62,16.26,1111122 
LUMCON,ioos:station:LUMCON:101:1,2017-08-02T16:45:00Z,29.2533,-90.6633,1.61,16.15,1111122 
LUMCON,ioos:station:LUMCON:101:1,2017-08-02T17:00:00Z,29.2533,-90.6633,1.6,15.97,1111122 
LUMCON,ioos:station:LUMCON:101:1,2017-08-02T17:15:00Z,29.2533,-90.6633,1.58,16.01,1111122 
LUMCON,ioos:station:LUMCON:101:1,2017-08-02T17:30:00Z,29.2533,-90.6633,1.58,15.95,1111122 
LUMCON,ioos:station:LUMCON:101:1,2017-08-02T17:45:00Z,29.2533,-90.6633,1.57,15.88,1111122 
LUMCON,ioos:station:LUMCON:101:1,2017-08-02T18:00:00Z,29.2533,-90.6633,1.57,15.86,1111122 
LUMCON,ioos:station:LUMCON:101:1,2017-08-02T18:15:00Z,29.2533,-90.6633,1.55,15.77,1111122 
LUMCON,ioos:station:LUMCON:101:1,2017-08-02T18:30:00Z,29.2533,-90.6633,1.54,15.65,1111122 
LUMCON,ioos:station:LUMCON:101:1,2017-08-02T18:45:00Z,29.2533,-90.6633,1.53,15.52,1111122 
LUMCON,ioos:station:LUMCON:101:1,2017-08-02T19:00:00Z,29.2533,-90.6633,1.52,15.37,1111122 
LUMCON,ioos:station:LUMCON:101:1,2017-08-02T19:15:00Z,29.2533,-90.6633,1.52,15.2,1111122 
LUMCON,ioos:station:LUMCON:101:1,2017-08-02T19:30:00Z,29.2533,-90.6633,1.54,14.85,1111122 
LUMCON,ioos:station:LUMCON:101:1,2017-08-02T19:45:00Z,29.2533,-90.6633,1.51,14.28,1111122 
LUMCON,ioos:station:LUMCON:101:1,2017-08-02T20:00:00Z,29.2533,-90.6633,1.5,13.9,1111122 
LUMCON,ioos:station:LUMCON:101:1,2017-08-02T20:15:00Z,29.2533,-90.6633,1.47,13.51,1111122 
LUMCON,ioos:station:LUMCON:101:1,2017-08-02T20:30:00Z,29.2533,-90.6633,1.46,13.21,1111122 
LUMCON,ioos:station:LUMCON:101:1,2017-08-02T20:45:00Z,29.2533,-90.6633,1.45,12.97,1111122 
LUMCON,ioos:station:LUMCON:101:1,2017-08-02T21:00:00Z,29.2533,-90.6633,1.44,12.74,1111122 
LUMCON,ioos:station:LUMCON:101:1,2017-08-02T21:15:00Z,29.2533,-90.6633,1.43,12.56,1111122 
LUMCON,ioos:station:LUMCON:101:1,2017-08-02T21:30:00Z,29.2533,-90.6633,1.42,12.32,1111122 
LUMCON,ioos:station:LUMCON:101:1,2017-08-02T21:45:00Z,29.2533,-90.6633,1.4,12.02,1111122 
LUMCON,ioos:station:LUMCON:101:1,2017-08-02T22:00:00Z,29.2533,-90.6633,1.39,11.68,1111122 
LUMCON,ioos:station:LUMCON:101:1,2017-08-02T22:15:00Z,29.2533,-90.6633,1.38,11.4,1111122 
LUMCON,ioos:station:LUMCON:101:1,2017-08-02T22:30:00Z,29.2533,-90.6633,1.35,11.14,1111122 
LUMCON,ioos:station:LUMCON:101:1,2017-08-02T22:45:00Z,29.2533,-90.6633,1.35,10.97,1111122 
LUMCON,ioos:station:LUMCON:101:1,2017-08-02T23:00:00Z,29.2533,-90.6633,1.35,10.79,1111122 
LUMCON,ioos:station:LUMCON:101:1,2017-08-02T23:15:00Z,29.2533,-90.6633,1.35,10.7,1111122 
LUMCON,ioos:station:LUMCON:101:1,2017-08-02T23:30:00Z,29.2533,-90.6633,1.36,10.61,1111122 
LUMCON,ioos:station:LUMCON:101:1,2017-08-02T23:45:00Z,29.2533,-90.6633,1.36,10.5,1111122 
LUMCON,ioos:station:LUMCON:101:1,2017-08-03T00:00:00Z,29.2533,-90.6633,1.35,10.37,1111122 
LUMCON,ioos:station:LUMCON:101:1,2017-08-03T00:15:00Z,29.2533,-90.6633,1.35,10.28,1111122 
LUMCON,ioos:station:LUMCON:101:1,2017-08-03T00:30:00Z,29.2533,-90.6633,1.35,10.21,1111122 
LUMCON,ioos:station:LUMCON:101:1,2017-08-03T00:45:00Z,29.2533,-90.6633,1.36,10.17,1111122 
LUMCON,ioos:station:LUMCON:101:1,2017-08-03T01:00:00Z,29.2533,-90.6633,1.36,10.16,1111122 
LUMCON,ioos:station:LUMCON:101:1,2017-08-03T01:15:00Z,29.2533,-90.6633,1.36,10.14,1111122 
LUMCON,ioos:station:LUMCON:101:1,2017-08-03T01:30:00Z,29.2533,-90.6633,1.35,10.14,1111122 
LUMCON,ioos:station:LUMCON:101:1,2017-08-03T01:45:00Z,29.2533,-90.6633,1.36,10.14,1111122 
LUMCON,ioos:station:LUMCON:101:1,2017-08-03T02:00:00Z,29.2533,-90.6633,1.37,11.75,1111122 
LUMCON,ioos:station:LUMCON:101:1,2017-08-03T02:15:00Z,29.2533,-90.6633,1.39,12.29,1111122 
LUMCON,ioos:station:LUMCON:101:1,2017-08-03T02:30:00Z,29.2533,-90.6633,1.4,11.89,1111122 
LUMCON,ioos:station:LUMCON:101:1,2017-08-03T02:45:00Z,29.2533,-90.6633,1.41,12.09,1111122 
LUMCON,ioos:station:LUMCON:101:1,2017-08-03T03:00:00Z,29.2533,-90.6633,1.42,12.16,1111122 
LUMCON,ioos:station:LUMCON:101:1,2017-08-03T03:15:00Z,29.2533,-90.6633,1.43,12.24,1111122 
LUMCON,ioos:station:LUMCON:101:1,2017-08-03T03:30:00Z,29.2533,-90.6633,1.45,12.41,1111122 
LUMCON,ioos:station:LUMCON:101:1,2017-08-03T03:45:00Z,29.2533,-90.6633,1.46,12.92,1111122 
LUMCON,ioos:station:LUMCON:101:1,2017-08-03T04:00:00Z,29.2533,-90.6633,1.47,13.16,1111122 
LUMCON,ioos:station:LUMCON:101:1,2017-08-03T04:15:00Z,29.2533,-90.6633,1.48,13.33,1111122 
LUMCON,ioos:station:LUMCON:101:1,2017-08-03T05:15:00Z,29.2533,-90.6633,1.53,13.85,1111122 
LUMCON,ioos:station:LUMCON:101:1,2017-08-03T05:30:00Z,29.2533,-90.6633,1.54,13.97,1111122 
LUMCON,ioos:station:LUMCON:101:1,2017-08-03T05:45:00Z,29.2533,-90.6633,1.55,14.19,1111122 
LUMCON,ioos:station:LUMCON:101:1,2017-08-03T06:00:00Z,29.2533,-90.6633,1.56,14.33,1111122 
LUMCON,ioos:station:LUMCON:101:1,2017-08-03T06:15:00Z,29.2533,-90.6633,1.57,14.51,1111122 
LUMCON,ioos:station:LUMCON:101:1,2017-08-03T06:30:00Z,29.2533,-90.6633,1.57,14.6,1111122 
LUMCON,ioos:station:LUMCON:101:1,2017-08-03T06:45:00Z,29.2533,-90.6633,1.58,14.75,1111122 
LUMCON,ioos:station:LUMCON:101:1,2017-08-03T07:00:00Z,29.2533,-90.6633,1.59,14.84,1111122 
LUMCON,ioos:station:LUMCON:101:1,2017-08-03T07:15:00Z,29.2533,-90.6633,1.6,15.04,1111122 
LUMCON,ioos:station:LUMCON:101:1,2017-08-03T07:30:00Z,29.2533,-90.6633,1.61,15.12,1111122 
LUMCON,ioos:station:LUMCON:101:1,2017-08-03T07:45:00Z,29.2533,-90.6633,1.62,15.21,1111122 
LUMCON,ioos:station:LUMCON:101:1,2017-08-03T08:00:00Z,29.2533,-90.6633,1.62,15.38,1111122 
LUMCON,ioos:station:LUMCON:101:1,2017-08-03T08:15:00Z,29.2533,-90.6633,1.63,15.49,1111122 
LUMCON,ioos:station:LUMCON:101:1,2017-08-03T08:30:00Z,29.2533,-90.6633,1.63,15.51,1111122 
LUMCON,ioos:station:LUMCON:101:1,2017-08-03T08:45:00Z,29.2533,-90.6633,1.64,15.61,1111122 
LUMCON,ioos:station:LUMCON:101:1,2017-08-03T09:00:00Z,29.2533,-90.6633,1.64,15.66,1111122 
LUMCON,ioos:station:LUMCON:101:1,2017-08-03T09:15:00Z,29.2533,-90.6633,1.65,15.74,1111122 
LUMCON,ioos:station:LUMCON:101:1,2017-08-03T09:30:00Z,29.2533,-90.6633,1.66,15.87,1111122 
LUMCON,ioos:station:LUMCON:101:1,2017-08-03T09:45:00Z,29.2533,-90.6633,1.67,16.0,1111122 
LUMCON,ioos:station:LUMCON:101:1,2017-08-03T10:00:00Z,29.2533,-90.6633,1.67,16.21,1111122 
LUMCON,ioos:station:LUMCON:101:1,2017-08-03T10:15:00Z,29.2533,-90.6633,1.68,16.29,1111122 
LUMCON,ioos:station:LUMCON:101:1,2017-08-03T10:30:00Z,29.2533,-90.6633,1.68,16.36,1111122 
LUMCON,ioos:station:LUMCON:101:1,2017-08-03T10:45:00Z,29.2533,-90.6633,1.69,16.45,1111122 
LUMCON,ioos:station:LUMCON:101:1,2017-08-03T11:00:00Z,29.2533,-90.6633,1.69,16.58,1111122 
LUMCON,ioos:station:LUMCON:101:1,2017-08-03T11:15:00Z,29.2533,-90.6633,1.69,16.6,1111122 
LUMCON,ioos:station:LUMCON:101:1,2017-08-03T11:30:00Z,29.2533,-90.6633,1.69,16.46,1111122 
LUMCON,ioos:station:LUMCON:101:1,2017-08-03T11:45:00Z,29.2533,-90.6633,1.71,16.59,1111122 
LUMCON,ioos:station:LUMCON:101:1,2017-08-03T12:00:00Z,29.2533,-90.6633,1.72,16.57,1111122 
LUMCON,ioos:station:LUMCON:101:1,2017-08-03T12:15:00Z,29.2533,-90.6633,1.72,16.59,1111122 
LUMCON,ioos:station:LUMCON:101:1,2017-08-03T12:30:00Z,29.2533,-90.6633,1.72,16.61,1111122 
LUMCON,ioos:station:LUMCON:101:1,2017-08-03T12:45:00Z,29.2533,-90.6633,1.71,16.66,1111122 
LUMCON,ioos:station:LUMCON:101:1,2017-08-03T13:00:00Z,29.2533,-90.6633,1.71,16.6,1111122 
LUMCON,ioos:station:LUMCON:101:1,2017-08-03T13:15:00Z,29.2533,-90.6633,1.73,16.5,1111122 
LUMCON,ioos:station:LUMCON:101:1,2017-08-03T13:30:00Z,29.2533,-90.6633,1.72,16.32,1111122 
LUMCON,ioos:station:LUMCON:101:1,2017-08-03T13:45:00Z,29.2533,-90.6633,1.71,16.21,1111122 
LUMCON,ioos:station:LUMCON:101:1,2017-08-03T14:00:00Z,29.2533,-90.6633,1.7,16.1,1111122 
LUMCON,ioos:station:LUMCON:101:1,2017-08-03T14:15:00Z,29.2533,-90.6633,1.7,15.99,1111122 
LUMCON,ioos:station:LUMCON:101:1,2017-08-03T14:30:00Z,29.2533,-90.6633,1.68,15.9,1111122 
LUMCON,ioos:station:LUMCON:101:1,2017-08-03T14:45:00Z,29.2533,-90.6633,1.66,15.78,1111122 
LUMCON,ioos:station:LUMCON:101:1,2017-08-03T15:00:00Z,29.2533,-90.6633,1.65,15.65,1111122 
LUMCON,ioos:station:LUMCON:101:1,2017-08-03T15:15:00Z,29.2533,-90.6633,1.63,15.45,1111122 
LUMCON,ioos:station:LUMCON:101:1,2017-08-03T15:30:00Z,29.2533,-90.6633,1.61,15.36,1111122 
LUMCON,ioos:station:LUMCON:101:1,2017-08-03T15:45:00Z,29.2533,-90.6633,1.61,15.17,1111122 
LUMCON,ioos:station:LUMCON:101:1,2017-08-03T16:00:00Z,29.2533,-90.6633,1.6,15.04,1111122 
LUMCON,ioos:station:LUMCON:101:1,2017-08-03T16:15:00Z,29.2533,-90.6633,1.58,14.84,1111122 
LUMCON,ioos:station:LUMCON:101:1,2017-08-03T16:30:00Z,29.2533,-90.6633,1.56,14.59,1111122 
LUMCON,ioos:station:LUMCON:101:1,2017-08-04T01:00:00Z,29.2533,-90.6633,1.29,9.98,1111122 
LUMCON,ioos:station:LUMCON:101:1,2017-08-04T01:15:00Z,29.2533,-90.6633,1.29,9.99,1111122 
LUMCON,ioos:station:LUMCON:101:1,2017-08-04T01:30:00Z,29.2533,-90.6633,1.28,9.99,1111122 
LUMCON,ioos:station:LUMCON:101:1,2017-08-04T01:45:00Z,29.2533,-90.6633,1.28,9.89,1111122 
LUMCON,ioos:station:LUMCON:101:1,2017-08-04T02:00:00Z,29.2533,-90.6633,1.28,9.92,1111122 
LUMCON,ioos:station:LUMCON:101:1,2017-08-04T02:15:00Z,29.2533,-90.6633,1.29,9.91,1111122 
LUMCON,ioos:station:LUMCON:101:1,2017-08-04T02:30:00Z,29.2533,-90.6633,1.29,9.88,1111122 
LUMCON,ioos:station:LUMCON:101:1,2017-08-04T02:45:00Z,29.2533,-90.6633,1.3,9.87,1111122 
LUMCON,ioos:station:LUMCON:101:1,2017-08-04T03:00:00Z,29.2533,-90.6633,1.32,9.89,1111122 